Other Public Products
Issued by NWS Grand Forks, ND

Home | Current Version | Previous Version | Text Only | Print | Product List | Glossary Off
Versions: 1 2 3 4 5 6 7 8 9 10 11 12 13 14 15 16 17 18 19 20 21 22 23 24 25 26 27 28 29 30 31 32 33 34 35 36 37 38 39 40 41 42 43 44 45 46 47 48 49 50

000
FPUS83 KFGF 191810
OPUFGF
PRAIRIE TO PINES WEATHER ROUNDUP
NATIONAL WEATHER SERVICE EASTERN NORTH DAKOTA/GRAND FORKS ND
100 PM CDT THU APR 19 2018

 **SATELLITE DATA USED TO AUGMENT SKY COVER AT AUTOMATED STATIONS**
 *****  WEATHER ACROSS EASTERN NORTH DAKOTA  *****

CITY           SKY/WX    TMP DP  RH WIND       PRES   REMARKS
GRAND FORKS    FAIR      53  29  39 S5        30.41F
6HR MIN TEMP:  27; 6HR MAX TEMP:  53;

GRND FORKS AFB FAIR      56  28  34 W3        30.41S
GRND FORKS NWS   N/A     53  33  47 SW6       30.39S
BUXTON           N/A     52  29  41 SW5         N/A
DEVILS LAKE    FAIR      47  35  63 SW9       30.42S
6HR MIN TEMP:  26; 6HR MAX TEMP:  47;

FARGO          FAIR      52  29  41 W7        30.43S
6HR MIN TEMP:  27; 6HR MAX TEMP:  52;

WAHPETON ARPT  FAIR      50  30  46 SW5       30.46S
$$

 *****  WEATHER ACROSS CENTRAL AND WESTERN NORTH DAKOTA  *****

CITY           SKY/WX    TMP DP  RH WIND       PRES   REMARKS
JAMESTOWN      FAIR      50  28  42 CALM      30.41F
6HR MIN TEMP:  27; 6HR MAX TEMP:  51;

BISMARCK       FAIR      52  25  35 CALM      30.41F
6HR MIN TEMP:  23; 6HR MAX TEMP:  52;

MINOT          CLOUDY    43  34  70 NW3       30.42F HAZE
6HR MIN TEMP:  35; 6HR MAX TEMP:  43;

MINOT AFB      CLOUDY    42  35  76 CALM      30.41S
6HR MIN TEMP:  34; 6HR MAX TEMP:  42;

GARRISON         N/A     41  34  76 CALM      30.41F
6HR MIN TEMP:  33; 6HR MAX TEMP:  41;

WILLISTON      CLOUDY    47  36  65 SE10      30.37F
6HR MIN TEMP:  34; 6HR MAX TEMP:  46;

DICKINSON      FAIR      52  31  44 SE8       30.32F
6HR MIN TEMP:  23; 6HR MAX TEMP:  52; 6HR PCP: TRACE;

HETTINGER      FAIR      53  31  42 SE12      30.33F
6HR MIN TEMP:  21; 6HR MAX TEMP:  53;

$$

 *****  OTHER OBSERVATIONS NORTHEAST NORTH DAKOTA  *****

CITY           SKY/WX    TMP DP  RH WIND       PRES   REMARKS
WALHALLA       FAIR      54  28  37 VRB6      30.40S
LANGDON        FAIR      52  34  50 SW6       30.40F
CAVALIER         N/A     54  30  40 SE6       30.40S
GRAFTON        FAIR      55  25  30 SW5       30.43S
CANDO          FAIR      50  34  53 W6        30.43S
FORT TOTTEN      N/A     49  33  53 NW6       29.95S
ROLLA          FAIR      45  39  81 S9        30.40S
RUGBY          CLOUDY    43  37  81 VRB5      30.41F
 ***** THE ABOVE OBSERVATIONS ARE NON NWS ARE NOT QUALITY
        CONTROLLED AND MAY MIS-REPORT RAIN FOR SNOW...
$$

 *****  OTHER OBSERVATIONS SOUTHEAST NORTH DAKOTA *****

CITY           SKY/WX    TMP DP  RH WIND       PRES   REMARKS
COOPERSTOWN    FAIR      50  37  62 SW7       30.43S
VALLEY CITY    FAIR      46  37  71 W5        30.44F
OAKES            N/A     50  32  50 W9        30.44F
GWINNER          N/A     52  34  50 SW9       30.44S
SHEYENNE NWR     N/A     55  29  36 W5        29.95S
BUFFALO          N/A     49  28  44 SW3         N/A
WYNDMERE       NOT AVBL
 ***** THE ABOVE OBSERVATIONS ARE NON NWS ARE NOT QUALITY
       CONTROLLED AND MAY MIS-REPORT RAIN FOR SNOW...
$$

  *****  WEATHER ACROSS NORTHERN MINNESOTA  *****

CITY           SKY/WX    TMP DP  RH WIND       PRES   REMARKS
FLAG ISLAND    FAIR      37  25  60 SE7       30.40F
WARROAD        FAIR      54  25  32 CALM      30.41S
ROSEAU         FAIR      52  19  28 SW6       30.41S
HALLOCK        FAIR      54  30  40 SW3       30.41S
THF RVR FALLS  FAIR      51  22  31 SW5       30.43S
6HR MIN TEMP:  29; 6HR MAX TEMP:  51;

HALSTAD        NOT AVBL
FOSSTON        FAIR      54  18  24 W5        30.43S
BAUDETTE       FAIR      52  16  24 N6        30.40F
6HR MIN TEMP:  25; 6HR MAX TEMP:  53;

WASKISH        FAIR      52  16  24 W5        30.42S
CROOKSTON      FAIR      52  25  35 W3        30.43F
$$
  *****  WEATHER ACROSS CENTRAL AND WEST MINNESOTA  *****

CITY           SKY/WX    TMP DP  RH WIND       PRES   REMARKS
BEMIDJI        FAIR      50  13  23 CALM      30.41F
6HR MIN TEMP:  24; 6HR MAX TEMP:  50;

PARK RAPIDS    FAIR      50  15  24 S3        30.42S
6HR MIN TEMP:  25; 6HR MAX TEMP:  51;

WADENA         FAIR      48  28  46 SW5       30.44S
DETROIT LAKES  FAIR      52  19  28 CALM      30.44S
MOORHEAD       FAIR      52  28  40 SW7       30.44S
FERGUS FALLS   FAIR      50  34  53 SW7       30.44S
ELBOW LAKE     FAIR      49  35  58 SW7       30.46F
MORRIS MN      FAIR      48  30  49 SW10      30.46F
STAPLES        FAIR      48  18  29 W7        30.45S
WHEATON        FAIR      52  32  46 W8        30.48S
$$
  *****  WEATHER ELSEWHERE ACROSS MINNESOTA  *****

CITY           SKY/WX    TMP DP  RH WIND       PRES   REMARKS
DULUTH         FAIR      49  14  24 N17       30.40S
6HR MIN TEMP:  22; 6HR MAX TEMP:  49;

INTRNTL FALLS  FAIR      50  13  22 W7        30.40F
6HR MIN TEMP:  20; 6HR MAX TEMP:  51;

ELY            FAIR      48   9  20 N3        30.39S
CLOQUET        FAIR      50   9  18 W7        30.41S
BRAINERD       FAIR      52  14  22 NW12      30.44S
6HR MIN TEMP:  24; 6HR MAX TEMP:  52;

HIBBING        FAIR      48  14  25 NW7       30.41S
6HR MIN TEMP:  20; 6HR MAX TEMP:  49;

ALEXANDRIA     FAIR      52  26  36 SW10      30.47R
6HR MIN TEMP:  32; 6HR MAX TEMP:  52;

SAINT CLOUD    FAIR      51  20  29 W6        30.46S
6HR MIN TEMP:  25; 6HR MAX TEMP:  51;

MINNEAPOLIS    FAIR      47  18  31 NW9       30.48S
6HR MIN TEMP:  28; 6HR MAX TEMP:  48;

$$

  *****  WEATHER ACROSS SOUTH DAKOTA  *****

CITY           SKY/WX    TMP DP  RH WIND       PRES   REMARKS
SIOUX FALLS    FAIR      43  26  51 NW5       30.50S
6HR MIN TEMP:  24; 6HR MAX TEMP:  43;

BROOKINGS      FAIR      46  23  40 SW5       30.49R
WATERTOWN      FAIR      47  27  45 W8        30.45F
6HR MIN TEMP:  26; 6HR MAX TEMP:  47;

HURON          FAIR      42  29  59 S8        30.48F
6HR MIN TEMP:  24; 6HR MAX TEMP:  42;

SISSETON         N/A     53  32  44 W9        30.44F
ABERDEEN       FAIR      53  31  42 VRB6      30.44F
6HR MIN TEMP:  23; 6HR MAX TEMP:  53;

MITCHELL       FAIR      41  32  70 W3        30.50S
PIERRE         FAIR      49  30  48 SE8       30.40F
6HR MIN TEMP:  24; 6HR MAX TEMP:  49;

MOBRIDGE       FAIR      52  26  36 S8        30.38F
RAPID CITY     FAIR      53  30  41 S14G24    30.30F
6HR MIN TEMP:  29; 6HR MAX TEMP:  55;

$$

  *****  SOME WEATHER IN NEARBY STATES *****

CITY           SKY/WX    TMP DP  RH WIND       PRES   REMARKS
GLASGOW MT     FAIR      46  37  71 E20       30.27F
6HR MIN TEMP:  31; 6HR MAX TEMP:  46;

GREAT FALLS MT FAIR      47  26  44 VRB3      30.13F
6HR MIN TEMP:  27; 6HR MAX TEMP:  48;

CHEYENNE WY    FAIR      49  20  31 S21G31    30.19F
6HR MIN TEMP:  30; 6HR MAX TEMP:  49;

SCOTTSBLUFF NE FAIR      56  30  37 SE24G30   30.25F
6HR MIN TEMP:  29; 6HR MAX TEMP:  56;

OMAHA NE       FAIR      52  29  41 VRB3      30.47F
6HR MIN TEMP:  27; 6HR MAX TEMP:  52;

DES MOINES IA  FAIR      49  27  42 N10       30.49R
6HR MIN TEMP:  32; 6HR MAX TEMP:  50;

DAVENPORT IA   FAIR      49  31  49 NW7       30.45R
6HR MIN TEMP:  30; 6HR MAX TEMP:  49;

CHICAGO IL     FAIR      50  28  42 N9        30.34R
6HR MIN TEMP:  33; 6HR MAX TEMP:  50;

EAU CLAIRE WI  FAIR      45  21  38 NW8       30.44S
6HR MIN TEMP:  23; 6HR MAX TEMP:  45;

LA CROSSE WI   FAIR      44  26  49 NW8       30.46S
6HR MIN TEMP:  23; 6HR MAX TEMP:  44;

$$

  *****  SOME NATIONAL WEATHER *****

CITY           SKY/WX    TMP DP  RH WIND       PRES   REMARKS
LA GUARDIA NY  LGT RAIN  44  38  79 NW13      29.75R


USA.gov is the U.S. government's official web portal to all federal, state and local government web resources and services.